Weather History for KJYL - September, 2013

Change the Weather History Date:

Monday, September 2, 2013

  Actual Average (KSAV) Record (KSAV)
Temperature  
Mean Temperature 82 °F 80 °F  
Max Temperature 91 °F 89 °F 100 °F (1912)
Min Temperature 72 °F 71 °F 58 °F (1999)
Degree Days  
Heating Degree Days 0 0  
Month to date heating degree days 0  
Since 1 July heating degree days 0  
Cooling Degree Days 16 15  
Month to date cooling degree days 30  
Year to date cooling degree days 1937  
Growing Degree Days 32 (Base 50)    
Moisture  
Dew Point 72 °F    
Average Humidity 79    
Maximum Humidity 90    
Minimum Humidity 55    
Precipitation  
Precipitation 0.00 in 0.18 in 4.29 in (1890)
Month to date precipitation 0.36  
Year to date precipitation 34.73  
Sea Level Pressure  
Sea Level Pressure 29.92 in    
Wind  
Wind Speed 2 mph (SW)    
Max Wind Speed 15 mph    
Max Gust Speed 28 mph    
Visibility 9 miles    
Events Rain , Thunderstorm    
T = Trace of Precipitation, MM = Missing Value Source: NWS Daily Summary

Daily Weather History Graph

Daily Weather History Graph

Search for Another Location

Airport or City:

Trip Planner

Search our weather history database for the weather conditions in past years. The results will help you decide how hot, cold, wet, or windy it might be!

Date:

Astronomy

Sep. 02, 2013 Rise Set
Actual Time 7:01 AM EDT 7:49 PM EDT
Civil Twilight 6:36 AM EDT 8:14 PM EDT
Nautical Twilight 6:07 AM EDT 8:43 PM EDT
Astronomical Twilight 5:37 AM EDT 9:14 PM EDT
Moon 4:23 AM EDT 5:58 PM EDT
Length of Visible Light 13h 37m
Length of Day
12h 47m
Waning Crescent, 8% of the Moon is Illuminated
Sep 2
Waning Crescent
Sep 5
New
Sep 12
First Quarter
Sep 19
Full
Sep 26
Last Quarter

Hourly Weather History & Observations

Time (EDT) Temp. Heat Index Dew Point Humidity Pressure Visibility Wind Dir Wind Speed Gust Speed Precip Events Conditions
12:15 AM 79.5 °F - 74.7 °F 85% 29.94 in 7.0 mi SSW 3.5 mph - N/A   Clear
12:35 AM 79.2 °F - 74.5 °F 86% 29.93 in 7.0 mi SSW 3.5 mph - N/A   Clear
12:55 AM 79.0 °F - 74.5 °F 86% 29.93 in 7.0 mi Calm Calm - N/A   Clear
1:15 AM 78.8 °F - 74.5 °F 87% 29.93 in 7.0 mi Calm Calm - N/A   Clear
1:35 AM 78.6 °F - 74.3 °F 87% 29.92 in 7.0 mi Calm Calm - N/A   Clear
1:55 AM 78.8 °F - 74.3 °F 86% 29.92 in 7.0 mi Calm Calm - N/A   Clear
2:15 AM 78.1 °F - 73.9 °F 87% 29.92 in 7.0 mi Calm Calm - N/A   Clear
2:35 AM 78.1 °F - 73.9 °F 87% 29.92 in 7.0 mi Calm Calm - N/A   Clear
2:55 AM 77.9 °F - 73.6 °F 86% 29.92 in 7.0 mi SW 3.5 mph - N/A   Clear
3:15 AM 77.9 °F - 73.4 °F 86% 29.91 in 7.0 mi SW 3.5 mph - N/A   Clear
3:35 AM 77.5 °F - 73.2 °F 86% 29.90 in 7.0 mi SW 3.5 mph - N/A   Clear
3:55 AM 77.7 °F - 72.9 °F 85% 29.91 in 10.0 mi SW 3.5 mph - N/A   Clear
4:15 AM 77.9 °F - 72.7 °F 84% 29.91 in 10.0 mi Calm Calm - N/A   Clear
4:35 AM 77.4 °F - 72.5 °F 85% 29.91 in 10.0 mi Calm Calm - N/A   Clear
4:55 AM 77.0 °F - 72.5 °F 86% 29.91 in 10.0 mi WSW 3.5 mph - N/A   Clear
5:15 AM 77.0 °F - 72.5 °F 86% 29.91 in 10.0 mi SW 4.6 mph - N/A   Clear
5:35 AM 77.4 °F - 72.5 °F 85% 29.91 in 10.0 mi Calm Calm - N/A   Clear
5:55 AM 77.0 °F - 72.3 °F 85% 29.92 in 10.0 mi Calm Calm - N/A   Clear
6:15 AM 76.8 °F - 72.1 °F 85% 29.91 in 10.0 mi Calm Calm - N/A   Clear
6:35 AM 76.6 °F - 72.3 °F 86% 29.91 in 10.0 mi Calm Calm - N/A   Clear
6:55 AM 76.1 °F - 72.0 °F 87% 29.92 in 7.0 mi Calm Calm - N/A   Clear
7:15 AM 75.9 °F - 72.1 °F 88% 29.93 in 7.0 mi Calm Calm - N/A   Clear
7:35 AM 76.1 °F - 72.5 °F 89% 29.94 in 7.0 mi Calm Calm - N/A   Clear
7:55 AM 76.6 °F - 72.7 °F 87% 29.94 in 7.0 mi SW 3.5 mph - N/A   Clear
8:15 AM 77.5 °F - 73.0 °F 86% 29.95 in 7.0 mi Calm Calm - N/A   Clear
8:35 AM 78.8 °F - 73.4 °F 83% 29.95 in 10.0 mi WSW 3.5 mph - N/A   Clear
8:55 AM 79.7 °F - 73.6 °F 81% 29.95 in 10.0 mi SW 4.6 mph - N/A   Clear
9:15 AM 80.6 °F 85.4 °F 73.4 °F 79% 29.96 in 10.0 mi West 4.6 mph - N/A   Clear
9:35 AM 81.9 °F 87.3 °F 73.4 °F 75% 29.97 in 10.0 mi WSW 4.6 mph - N/A   Clear
9:55 AM 82.0 °F 87.7 °F 73.4 °F 75% 29.97 in 10.0 mi WSW 3.5 mph - N/A   Clear
10:15 AM 84.0 °F 91.2 °F 73.9 °F 72% 29.97 in 10.0 mi West 4.6 mph - N/A   Clear
10:35 AM 85.1 °F 92.2 °F 73.6 °F 68% 29.98 in 10.0 mi West 4.6 mph - N/A   Clear
10:55 AM 85.8 °F 93.4 °F 73.9 °F 67% 29.98 in 10.0 mi WSW 4.6 mph - N/A   Scattered Clouds
11:15 AM 86.9 °F 94.5 °F 73.2 °F 64% 29.98 in 10.0 mi West 3.5 mph - N/A   Scattered Clouds
11:35 AM 87.6 °F 95.7 °F 73.4 °F 63% 29.98 in 10.0 mi WNW 5.8 mph - N/A   Mostly Cloudy
11:55 AM 87.3 °F 95.3 °F 73.6 °F 64% 29.98 in 10.0 mi West 3.5 mph - N/A   Mostly Cloudy
12:15 PM 88.3 °F 97.4 °F 74.3 °F 63% 29.97 in 10.0 mi WSW 4.6 mph - N/A   Mostly Cloudy
12:35 PM 88.2 °F 96.9 °F 73.9 °F 63% 29.97 in 10.0 mi Calm Calm - N/A   Mostly Cloudy
12:55 PM 88.9 °F 98.1 °F 74.1 °F 62% 29.96 in 10.0 mi West 4.6 mph - N/A   Mostly Cloudy
1:15 PM 90.3 °F 99.9 °F 74.3 °F 59% 29.95 in 10.0 mi West 5.8 mph - N/A   Scattered Clouds
1:35 PM 90.7 °F 99.6 °F 73.8 °F 57% 29.94 in 10.0 mi WSW 3.5 mph - N/A   Scattered Clouds
1:55 PM 91.0 °F 101.0 °F 74.3 °F 58% 29.94 in 10.0 mi SW 4.6 mph - N/A   Mostly Cloudy
2:15 PM 90.5 °F 99.2 °F 73.4 °F 57% 29.93 in 10.0 mi West 5.8 mph - N/A   Scattered Clouds
2:35 PM 91.4 °F 100.1 °F 73.4 °F 55% 29.91 in 10.0 mi Calm Calm - N/A   Scattered Clouds
2:55 PM 89.6 °F 97.2 °F 72.5 °F 57% 29.91 in 10.0 mi West 4.6 mph - N/A   Scattered Clouds
3:15 PM 88.0 °F 96.5 °F 73.8 °F 63% 29.90 in 10.0 mi SW 5.8 mph - N/A Thunderstorm Thunderstorm
3:35 PM 85.1 °F 92.2 °F 73.6 °F 68% 29.89 in 10.0 mi SW 5.8 mph - N/A Thunderstorm Thunderstorm
3:55 PM 81.7 °F 85.8 °F 71.1 °F 70% 29.88 in 10.0 mi SSW 5.8 mph - N/A   Clear
4:15 PM 86.7 °F 92.1 °F 70.9 °F 59% 29.87 in 10.0 mi SSW 3.5 mph - N/A   Clear
4:35 PM 87.1 °F 92.4 °F 70.9 °F 58% 29.88 in 10.0 mi SW 3.5 mph - N/A Thunderstorm Clear
4:55 PM 84.9 °F 91.1 °F 72.5 °F 66% 29.87 in 10.0 mi Calm Calm - N/A Thunderstorm Clear
5:15 PM 82.8 °F 86.7 °F 70.0 °F 65% 29.92 in 10.0 mi NW 11.5 mph 23.0 mph N/A Thunderstorm Scattered Clouds
5:35 PM 76.6 °F - 68.9 °F 77% 29.93 in 7.0 mi WNW 15.0 mph 27.6 mph N/A Rain , Thunderstorm Rain
5:55 PM 73.4 °F - 69.1 °F 86% 29.92 in 4.0 mi South 3.5 mph - N/A Rain , Thunderstorm Light Thunderstorms and Rain
6:15 PM 73.0 °F - 68.9 °F 87% 29.89 in 10.0 mi South 4.6 mph - N/A Thunderstorm Thunderstorm
6:35 PM 72.9 °F - 68.7 °F 87% 29.88 in 10.0 mi Calm Calm - N/A Thunderstorm Thunderstorm
6:55 PM 74.3 °F - 69.3 °F 84% 29.88 in 10.0 mi Calm Calm - N/A Rain , Thunderstorm Rain
7:15 PM 74.3 °F - 69.6 °F 85% 29.87 in 10.0 mi Calm Calm - N/A Rain Light Rain
7:35 PM 74.7 °F - 70.2 °F 86% 29.88 in 10.0 mi Calm Calm - N/A Rain Light Rain
7:55 PM 74.3 °F - 70.7 °F 88% 29.89 in 7.0 mi Calm Calm - N/A Thunderstorm Clear
8:15 PM 74.1 °F - 70.5 °F 88% 29.89 in 10.0 mi Calm Calm - N/A   Clear
8:35 PM 74.3 °F - 70.7 °F 88% 29.89 in 10.0 mi Calm Calm - N/A   Clear
8:55 PM 73.9 °F - 70.7 °F 90% 29.90 in 7.0 mi SSE 3.5 mph - N/A   Clear
9:15 PM 74.7 °F - 71.1 °F 88% 29.90 in 10.0 mi Calm Calm - N/A   Clear
9:35 PM 74.5 °F - 71.1 °F 89% 29.91 in 7.0 mi Calm Calm - N/A   Clear
9:55 PM 74.3 °F - 71.1 °F 90% 29.92 in 7.0 mi Calm Calm - N/A   Clear
10:15 PM 74.5 °F - 71.2 °F 90% 29.94 in 7.0 mi Calm Calm - N/A   Clear
10:35 PM 74.7 °F - 71.2 °F 89% 29.94 in 7.0 mi South 3.5 mph - N/A Thunderstorm Mostly Cloudy
10:55 PM 74.7 °F - 70.9 °F 88% 29.94 in 10.0 mi Calm Calm - N/A   Mostly Cloudy
11:15 PM 74.5 °F - 70.7 °F 88% 29.94 in 10.0 mi South 3.5 mph - N/A   Mostly Cloudy
11:35 PM 74.5 °F - 70.5 °F 87% 29.93 in 10.0 mi South 4.6 mph - N/A   Mostly Cloudy
11:55 PM 74.3 °F - 70.7 °F 88% 29.93 in 10.0 mi Calm Calm - N/A   Scattered Clouds